User: anonymous   Login
Location: Drummondville
(45.8830°N, 72.4830°W)
Time: 18:47:57
(UTC-04:00)
Language:

ITUPSAT 1 - Orbit

View from above orbital plane
View from above orbital plane
View from above satellite
View from above satellite

Ground track
Ground track

The orbit data is extracted from the following two-line orbital elements,

1 35935U 09051E   19082.14644097  .00000059  00000-0  24839-4 0  9999
2 35935  98.5914 247.5606 0009321  85.9310 274.2952 14.55511896503907
Epoch (UTC): 23 March 2019 03:30:52
Eccentricity: 0.0009321
inclination: 98.5914°
perigee height: 701 km
apogee height: 714 km
right ascension of ascending node: 247.5606°
argument of perigee: 85.9310°
revolutions per day: 14.55511896
mean anomaly at epoch: 274.2952°
orbit number at epoch: 50390

The dashed part of the orbit path shows where the satellite is in the earth's shadow,  

DLR